Wind_Speed
20 15 18 20 19 17 21 23 23 19 17 19 18 18 20 21 19 16 13 12 9 10 10 10 10 11 11 11 11 13 13 14 15 14 14 14 13 14 14 14 12 12 13
21 20 20 20 18 20 19 21 20 17 18 18 16 17 18 19 18 16 13 11 9 9 8 9 10 10 11 11 10 11 13 14 14 14 14 14 12 14 15 14 14 13 11
19 17 20 23 21 21 19 20 18 17 16 16 15 15 16 17 17 14 11 10 11 9 10 9 9 10 10 10 9 10 11 14 15 12 14 14 13 12 12 13 10 11 12
16 19 19 20 19 18 16 16 14 14 13 13 14 14 15 15 13 12 10 9 9 11 11 9 7 8 10 9 8 7 8 9 10 10 9 11 9 10 10 10 8 8 9
18 19 18 17 16 14 14 13 12 11 12 12 13 13 12 11 9 9 9 7 7 9 9 10 8 7 8 8 6 6 8 8 9 8 7 9 10 8 7 8 8 8 7
17 17 15 15 13 12 12 12 12 11 12 11 11 10 10 9 8 9 8 7 6 7 9 9 9 6 6 7 6 5 6 5 7 5 4 6 8 6 6 7 6 8 9
14 14 14 13 13 12 12 11 11 11 11 11 11 10 8 7 8 7 8 6 6 7 8 8 7 6 4 4 4 5 4 4 3 5 6 2 4 6 4 5 4 6 7
13 12 11 10 10 11 11 10 11 12 12 11 9 7 7 7 8 9 7 5 4 5 6 5 6 6 5 2 2 4 5 4 5 5 3 6 4 4 3 2 3 5 6
5 4 4 5 9 10 10 10 12 12 12 10 9 9 13 12 11 9 7 5 4 4 5 6 5 4 5 3 3 2 4 5 5 5 7 6 7 6 3 1 1 3 6
2 3 5 10 11 10 11 14 13 13 12 11 11 11 12 12 12 12 11 9 7 5 4 6 7 6 5 3 5 4 5 5 5 6 9 11 9 8 7 5 2 2 4
2 4 9 11 11 12 11 11 11 11 11 11 11 10 9 9 11 10 9 9 8 8 7 8 9 9 8 8 7 7 6 8 9 9 11 13 14 11 11 10 7 4 4
5 9 12 12 12 11 9 9 10 9 9 9 9 8 8 8 8 9 9 9 10 10 9 9 8 8 8 8 8 8 9 9 10 10 11 13 15 15 16 13 11 8 7
10 12 13 13 12 11 9 7 8 7 7 8 7 7 7 7 8 10 11 12 12 12 12 11 11 11 10 9 10 10 10 10 9 10 11 10 13 15 16 17 15 13 10
12 12 12 12 11 10 9 7 6 7 7 7 6 7 6 6 8 11 13 14 13 12 13 13 13 12 11 10 10 10 9 11 11 9 11 14 12 15 17 18 17 20 16
13 14 13 11 10 9 9 8 7 8 7 7 6 6 7 7 6 9 11 12 13 13 13 14 14 13 13 13 12 11 11 10 11 10 9 11 12 14 15 18 18 19 20
14 13 12 11 9 8 8 7 7 7 7 7 7 6 5 6 6 7 8 10 10 11 12 12 12 12 12 13 12 12 12 11 10 11 10 9 9 13 14 15 18 19 18
15 14 12 11 8 7 4 6 7 6 7 5 7 6 5 5 4 6 6 7 9 11 10 10 10 11 12 12 13 13 13 13 13 12 11 12 12 12 13 15 16 19 21
12 11 10 8 7 4 3 4 5 4 5 6 5 5 5 4 6 6 6 7 8 9 10 10 11 12 14 14 13 14 14 14 15 14 13 12 12 12 13 15 17 18 20
10 9 8 8 8 6 4 3 4 2 3 6 5 5 7 8 9 11 11 11 10 10 10 10 10 11 13 14 14 14 15 16 15 15 14 13 12 12 12 12 16 17 20
11 11 11 10 8 8 5 4 3 2 1 3 3 4 6 7 9 10 11 12 13 13 13 13 13 14 15 16 15 15 15 14 15 14 13 13 13 13 12 11 12 15 18
10 11 12 11 9 6 5 3 2 3 4 4 5 6 7 8 9 9 11 13 14 15 15 14 14 14 16 17 17 16 15 16 15 16 17 15 14 14 14 12 11 12 15
11 12 12 11 10 10 8 6 5 5 5 5 7 8 10 11 12 14 14 15 16 16 15 14 13 13 15 16 18 18 17 16 15 16 16 18 18 16 15 14 12 12 15
11 13 13 12 12 12 10 9 7 7 8 9 10 12 13 15 15 17 18 18 17 16 15 13 13 14 15 14 16 19 20 18 16 16 17 18 19 18 18 16 16 15 16
12 14 15 14 15 14 13 13 13 13 13 15 17 20 22 20 18 18 20 20 17 15 14 12 12 14 14 15 16 17 19 21 21 19 19 18 18 20 20 20 19 20 19
16 18 17 17 17 17 16 17 18 19 20 21 24 23 19 19 18 18 19 19 17 16 16 15 13 13 14 16 18 19 19 19 21 23 23 21 21 19 19 20 22 24 25
17 21 22 21 19 19 20 21 22 24 26 23 20 20 19 18 18 18 20 21 18 18 17 16 16 16 17 19 20 21 23 20 20 21 24 26 26 23 24 26 26 29 30
Wind_Direction
120 125 119 116 110 104 101 99 90 88 97 92 86 88 89 92 94 93 95 94 91 87 80 74 69 77 93 102 100 92 85 82 82 82 80 83 90 100 103 104 113 125 142
120 117 118 108 112 99 94 87 98 102 94 92 97 100 98 93 90 88 87 90 92 83 81 75 69 88 98 111 107 102 98 84 86 86 89 88 88 94 99 101 115 120 136
115 106 107 105 105 103 100 97 101 100 101 105 106 101 97 96 94 94 92 84 76 74 73 75 78 96 104 112 119 109 114 93 85 82 95 93 93 102 113 112 111 126 126
122 119 111 103 99 100 102 104 106 110 107 104 103 107 109 107 109 102 90 74 73 70 67 80 96 102 122 126 138 126 132 116 98 92 88 93 83 88 98 111 139 144 143
126 116 115 114 111 108 105 106 107 109 106 108 113 115 118 114 100 94 85 82 70 75 79 83 100 111 121 130 141 122 129 154 144 112 91 85 73 69 85 95 114 140 164
125 120 118 115 112 116 116 119 114 107 114 117 114 113 108 105 108 103 105 93 81 68 71 71 80 110 136 147 142 124 141 175 209 199 92 70 51 55 82 93 115 131 143
122 120 115 112 116 114 113 112 106 106 103 102 105 98 95 96 95 99 95 79 55 49 55 65 78 89 107 167 172 153 143 176 210 239 259 290 9 23 50 100 126 146 150
120 112 108 113 107 103 99 92 84 92 99 100 90 91 80 77 82 89 83 85 56 27 34 43 56 69 78 55 218 211 198 209 234 275 295 246 299 299 4 80 131 170 172
128 113 100 109 107 97 86 80 81 79 78 77 81 81 66 72 69 79 60 60 47 12 4 1 6 26 39 8 313 264 222 218 244 254 282 277 269 256 270 354 117 175 184
132 96 96 107 104 92 89 78 81 80 71 70 71 68 56 55 48 59 49 42 35 23 15 350 344 349 351 323 292 284 278 249 246 246 250 258 250 250 256 257 219 210 181
132 108 103 108 111 102 90 82 79 73 71 68 63 66 58 50 44 34 35 34 29 31 28 16 4 355 343 324 302 296 283 271 272 271 262 259 254 248 257 243 238 234 233
150 126 120 121 112 103 96 85 74 68 66 65 64 60 61 48 43 33 29 29 29 28 27 22 14 6 356 339 324 320 306 287 288 280 267 270 248 239 248 239 233 244 248
139 126 124 121 116 111 100 89 83 71 67 74 76 64 57 45 41 44 51 54 50 44 42 34 25 18 14 356 343 336 323 319 309 297 285 274 252 251 242 246 240 238 244
137 132 129 121 114 109 102 89 82 73 65 75 82 84 75 62 51 57 63 61 54 45 42 41 35 30 24 20 15 1 347 332 327 313 290 285 272 265 258 248 242 247 239
145 142 133 133 126 114 97 85 78 74 71 74 78 82 82 80 72 61 64 59 52 49 45 43 42 36 35 29 24 22 12 358 349 341 322 293 287 282 279 264 250 259 234
148 148 149 147 135 116 98 94 90 87 74 68 81 83 85 93 68 57 52 47 40 42 41 36 31 27 23 19 14 14 18 13 358 340 330 321 297 280 279 278 270 262 261
156 162 164 160 147 133 116 122 109 91 74 63 64 70 80 84 63 41 35 25 15 12 13 15 8 7 8 7 1 359 1 2 359 3 348 339 316 302 286 275 274 271 266
173 171 176 179 181 165 150 146 123 99 68 51 65 66 52 39 27 21 13 8 6 347 348 355 353 351 347 346 347 345 346 350 352 356 355 356 353 337 304 287 275 266 270
182 182 189 197 199 208 227 208 175 154 93 64 54 31 23 4 0 357 356 352 346 339 337 340 339 340 333 333 338 338 334 336 341 345 347 344 341 348 345 317 293 280 267
202 205 208 209 211 224 227 189 168 172 41 60 23 20 1 349 351 343 340 329 320 316 314 316 323 329 326 327 331 332 332 327 323 329 337 339 338 332 336 338 321 302 285
224 214 209 210 219 215 192 198 242 256 248 270 305 311 315 314 319 322 326 322 318 312 309 310 316 318 320 318 320 326 330 324 320 319 327 330 329 330 326 322 317 315 305
231 222 216 215 214 205 209 218 239 266 284 294 290 288 293 300 306 309 310 312 311 309 309 308 310 313 317 316 320 324 324 319 319 318 320 321 321 320 316 306 303 304 302
232 231 226 221 217 220 227 237 253 274 287 289 285 288 294 295 296 301 304 307 306 304 303 305 307 311 313 318 320 322 324 325 318 317 316 312 308 306 305 296 291 293 293
239 236 233 232 231 232 237 247 258 267 274 276 284 294 294 292 292 299 300 300 301 294 291 297 302 309 312 317 318 320 321 322 322 322 318 309 308 301 300 293 288 286 287
256 250 242 242 245 250 254 258 263 269 275 282 291 299 298 293 295 299 301 302 299 299 305 303 297 301 307 314 316 320 320 319 319 320 319 317 312 301 295 293 289 287 284
262 252 250 248 252 258 263 266 269 279 285 292 298 298 296 296 301 304 310 311 307 306 310 308 303 303 307 311 314 316 319 319 317 315 314 315 316 310 303 296 297 298 293
Height
5897 5897 5897 5899 5899 5899 5900 5901 5903 5906 5907 5905 5906 5906 5906 5906 5907 5907 5909 5909 5909 5909 5909 5909 5909 5907 5907 5908 5909 5909 5907 5906 5905 5905 5905 5905 5905 5905 5906 5906 5907 5908 5908
5899 5899 5899 5900 5901 5900 5901 5901 5903 5905 5905 5905 5908 5908 5908 5908 5909 5910 5911 5909 5908 5908 5909 5909 5908 5908 5908 5909 5910 5910 5909 5909 5907 5907 5906 5907 5907 5906 5907 5909 5909 5909 5910
5901 5902 5901 5902 5903 5902 5903 5903 5904 5905 5907 5908 5910 5910 5910 5911 5911 5911 5911 5909 5909 5909 5909 5908 5909 5909 5910 5910 5912 5911 5910 5910 5909 5909 5908 5908 5909 5909 5909 5909 5911 5911 5911
5903 5903 5903 5903 5904 5904 5906 5906 5907 5909 5909 5910 5911 5912 5911 5912 5912 5911 5911 5910 5910 5910 5910 5909 5910 5910 5911 5912 5912 5911 5911 5911 5911 5912 5911 5911 5911 5911 5910 5910 5911 5912 5912
5906 5905 5906 5906 5907 5908 5908 5910 5910 5910 5911 5912 5912 5913 5913 5913 5913 5913 5912 5912 5911 5911 5912 5911 5911 5911 5912 5912 5912 5912 5912 5911 5912 5913 5912 5912 5912 5912 5911 5911 5912 5912 5913
5908 5908 5909 5908 5909 5911 5911 5912 5911 5912 5913 5913 5913 5914 5914 5914 5914 5913 5913 5912 5912 5911 5911 5911 5911 5912 5912 5912 5912 5913 5912 5912 5913 5913 5913 5914 5914 5913 5912 5912 5913 5913 5913
5911 5911 5911 5911 5911 5913 5912 5912 5913 5914 5914 5914 5914 5914 5915 5914 5914 5914 5913 5913 5912 5912 5911 5912 5912 5912 5913 5912 5912 5913 5913 5913 5913 5913 5914 5914 5915 5914 5913 5913 5913 5913 5913
5912 5912 5912 5912 5913 5913 5913 5914 5914 5915 5915 5914 5914 5915 5914 5913 5913 5914 5914 5913 5913 5912 5911 5912 5912 5913 5912 5912 5913 5913 5912 5913 5913 5913 5913 5914 5914 5915 5914 5914 5914 5913 5914
5914 5914 5913 5914 5914 5914 5914 5914 5915 5915 5915 5914 5915 5915 5915 5914 5914 5914 5913 5913 5913 5913 5913 5913 5912 5912 5912 5912 5913 5913 5912 5912 5912 5912 5912 5914 5914 5914 5915 5914 5914 5913 5913
5915 5914 5914 5914 5914 5915 5914 5914 5915 5916 5916 5916 5916 5916 5916 5915 5915 5914 5914 5914 5914 5914 5913 5913 5913 5912 5912 5912 5912 5912 5912 5912 5912 5912 5911 5912 5913 5913 5913 5914 5914 5913 5912
5915 5914 5914 5914 5915 5915 5915 5916 5917 5917 5917 5917 5917 5917 5916 5916 5915 5914 5915 5915 5915 5914 5913 5913 5913 5911 5911 5912 5912 5911 5910 5910 5911 5911 5911 5910 5910 5911 5911 5912 5912 5912 5911
5915 5916 5915 5916 5917 5917 5918 5918 5918 5918 5918 5918 5917 5917 5916 5916 5916 5916 5915 5915 5914 5913 5913 5912 5912 5911 5910 5910 5910 5909 5910 5910 5909 5908 5908 5908 5908 5908 5909 5909 5910 5911 5911
5916 5916 5917 5918 5918 5918 5919 5919 5919 5919 5919 5919 5918 5917 5917 5917 5917 5917 5916 5915 5914 5913 5913 5913 5912 5911 5911 5910 5908 5908 5908 5908 5908 5907 5907 5906 5906 5906 5906 5905 5908 5909 5909
5917 5917 5919 5920 5920 5920 5921 5921 5920 5920 5920 5919 5918 5917 5917 5917 5918 5918 5917 5916 5915 5915 5914 5913 5913 5913 5912 5911 5910 5909 5907 5906 5906 5905 5905 5905 5905 5905 5904 5903 5905 5906 5907
5918 5919 5921 5921 5921 5921 5921 5921 5921 5921 5920 5920 5919 5918 5918 5918 5919 5918 5919 5918 5917 5917 5915 5915 5915 5914 5913 5912 5911 5910 5908 5906 5905 5904 5903 5902 5902 5902 5902 5902 5902 5902 5903
5920 5921 5921 5922 5922 5922 5922 5922 5922 5922 5921 5921 5920 5920 5919 5920 5920 5919 5919 5919 5919 5917 5916 5916 5915 5914 5913 5912 5910 5909 5908 5906 5905 5903 5901 5900 5900 5899 5899 5899 5899 5898 5899
5920 5921 5922 5922 5922 5923 5924 5923 5923 5923 5922 5921 5921 5921 5921 5921 5920 5920 5920 5920 5919 5918 5917 5917 5916 5914 5914 5912 5910 5909 5907 5906 5904 5903 5901 5899 5898 5897 5896 5896 5896 5896 5897
5922 5922 5922 5922 5923 5923 5923 5924 5923 5923 5923 5922 5921 5921 5921 5921 5921 5921 5920 5919 5919 5919 5918 5917 5916 5915 5913 5911 5909 5908 5906 5905 5903 5902 5900 5898 5896 5895 5894 5893 5893 5893 5893
5922 5923 5923 5922 5923 5923 5923 5923 5923 5924 5923 5922 5923 5922 5921 5921 5920 5920 5920 5919 5919 5918 5917 5916 5915 5914 5912 5910 5908 5907 5905 5903 5901 5899 5898 5896 5894 5893 5891 5891 5889 5890 5890
5921 5921 5922 5922 5923 5923 5922 5923 5923 5923 5922 5922 5922 5922 5922 5921 5921 5920 5919 5919 5919 5917 5916 5914 5913 5911 5909 5907 5907 5905 5903 5901 5898 5896 5894 5893 5892 5890 5889 5888 5887 5886 5886
5920 5920 5921 5922 5922 5923 5923 5922 5923 5923 5922 5922 5921 5920 5920 5920 5920 5919 5918 5917 5916 5915 5914 5912 5910 5908 5907 5905 5903 5902 5900 5898 5896 5895 5893 5891 5889 5887 5886 5885 5884 5883 5883
5919 5919 5920 5920 5921 5921 5922 5921 5922 5922 5922 5921 5920 5920 5919 5918 5917 5917 5916 5914 5913 5911 5909 5908 5906 5905 5904 5902 5899 5897 5896 5895 5893 5892 5890 5888 5886 5885 5883 5881 5881 5880 5879
5916 5917 5917 5918 5919 5919 5920 5920 5920 5920 5920 5919 5919 5919 5917 5916 5914 5914 5913 5911 5909 5907 5905 5904 5903 5902 5901 5898 5896 5894 5891 5890 5889 5888 5886 5884 5881 5879 5877 5876 5875 5875 5874
5914 5914 5915 5916 5916 5917 5918 5918 5919 5918 5918 5918 5918 5917 5914 5912 5911 5909 5908 5906 5905 5904 5902 5901 5899 5898 5897 5895 5894 5891 5888 5884 5882 5883 5882 5880 5879 5876 5875 5873 5871 5869 5868
5910 5911 5911 5912 5913 5914 5915 5915 5914 5914 5914 5913 5912 5910 5908 5907 5906 5904 5903 5902 5900 5899 5898 5896 5895 5893 5892 5890 5889 5888 5884 5882 5880 5877 5874 5873 5872 5869 5867 5866 5865 5864 5862
5905 5906 5907 5908 5910 5911 5911 5911 5910 5910 5909 5907 5905 5904 5903 5901 5901 5899 5898 5897 5895 5894 5894 5893 5891 5889 5887 5885 5883 5881 5880 5878 5876 5874 5869 5865 5863 5862 5861 5858 5855 5854 5853